Wind_Speed
110 111 112 112 112 112 111 111 110 109 109 108 108 108 108 108 109 109 110 112 113 114 117 121 125 128 130 134 138 141 143 143 143 143 143 143 142 142 141 141 140 139 139 139 139 139 138 137 137 137 137 136 135 134 133 133 132 130 129 128 126 124 122 119 115 110 108 111 112 112 113 113 112 111 111 110 110 109 107 105 104 103 102 101 100
114 114 115 115 114 114 113 112 111 110 109 108 108 108 108 109 109 110 111 113 114 115 117 119 122 126 129 132 135 140 144 146 147 147 147 147 147 146 146 145 144 143 142 142 142 141 141 140 139 140 141 140 139 138 138 138 137 135 134 133 132 131 129 126 123 117 114 114 116 117 117 117 116 116 116 116 115 115 113 111 109 107 106 105 104
115 115 115 115 115 114 113 112 111 110 109 108 108 108 108 108 109 110 111 113 114 115 117 119 121 123 126 129 132 135 139 144 148 150 150 150 150 150 150 149 149 148 147 146 145 145 144 143 142 142 143 143 142 142 142 142 141 140 139 138 137 135 135 133 129 125 120 119 120 121 121 121 120 120 121 120 120 119 118 116 115 113 111 110 109
114 114 114 113 113 112 112 111 111 110 109 108 107 106 106 107 107 108 110 111 113 114 116 118 120 122 124 126 128 130 133 136 141 145 149 151 152 152 152 152 152 152 151 150 150 149 148 147 146 146 146 145 144 144 144 144 144 144 143 142 141 140 139 138 135 131 127 124 124 125 125 126 125 124 124 124 124 123 122 121 120 118 116 115 113
113 112 111 110 109 108 107 107 106 106 105 104 104 103 103 103 104 105 106 108 110 112 114 116 118 120 122 124 126 128 129 131 132 135 139 144 147 150 152 154 154 154 154 154 154 154 153 152 151 150 150 149 148 147 147 147 146 146 145 145 144 144 143 142 140 137 133 130 128 128 129 129 129 129 129 128 128 127 126 125 124 122 121 119 118
110 108 106 104 103 101 100 100 100 100 100 100 100 100 100 100 100 101 103 104 106 108 111 113 115 117 119 121 123 125 127 128 129 129 131 133 136 140 144 148 151 154 155 156 157 157 157 157 156 155 155 154 152 151 150 150 150 149 148 147 147 147 146 145 143 141 138 135 132 132 132 132 132 132 132 132 132 130 129 128 127 125 124 123 122
105 103 100 98 97 96 95 95 96 96 96 96 96 97 97 97 98 99 100 102 103 105 107 109 111 113 116 118 120 122 123 125 127 127 128 128 129 130 133 136 140 144 149 152 155 157 158 159 159 160 160 159 158 157 156 155 154 153 153 152 151 151 150 148 147 145 143 139 136 135 135 135 135 134 135 136 135 134 133 132 131 130 129 128 127
100 98 96 95 94 93 93 93 93 93 93 93 94 94 95 95 96 98 99 100 101 102 104 105 107 110 112 114 116 118 120 122 123 124 125 126 127 127 127 128 130 133 136 141 146 150 154 157 159 160 162 162 162 162 162 161 160 159 158 157 157 156 155 153 152 150 148 144 141 139 138 138 138 137 137 138 138 138 137 137 136 135 134 133 131
96 95 94 93 92 92 92 92 92 92 92 92 92 92 93 94 95 96 97 98 99 100 101 103 104 106 108 110 112 114 116 118 119 121 122 122 124 124 124 125 126 127 128 131 134 138 143 147 151 155 158 160 162 163 164 164 164 163 163 162 162 161 160 158 157 155 153 150 148 145 144 143 142 141 141 141 141 141 142 142 141 139 138 137 136
93 93 92 92 92 91 91 91 91 91 91 91 91 92 92 93 94 95 96 97 98 98 100 101 102 103 105 107 109 111 112 114 115 117 118 119 120 121 121 121 122 123 124 125 127 130 133 136 139 143 147 151 154 157 159 161 162 162 162 163 164 164 163 162 161 160 158 157 154 152 150 149 147 146 146 146 146 146 146 146 145 144 143 142 140
92 92 92 92 91 91 91 91 90 90 91 91 91 91 92 93 93 94 95 96 97 98 99 100 101 102 103 104 106 108 109 110 112 113 114 115 116 116 116 117 118 119 121 122 123 125 127 129 131 134 136 140 143 145 148 151 153 155 157 158 161 163 163 163 163 163 162 161 160 158 156 154 153 152 152 152 152 151 152 151 151 149 148 147 145
92 92 92 92 92 92 91 91 91 90 90 90 90 91 91 92 92 93 94 95 95 97 98 99 100 101 101 102 103 104 106 107 108 110 111 112 113 112 112 113 114 116 117 118 119 120 122 124 126 127 129 132 134 136 138 140 142 145 148 150 152 155 158 159 161 162 163 163 162 161 160 159 158 157 158 158 158 157 157 157 155 154 153 151 149
93 93 93 93 92 92 92 91 91 90 90 90 89 90 90 90 91 91 92 93 94 95 96 97 98 99 99 100 101 102 103 104 106 107 108 109 109 109 109 109 110 111 113 115 116 116 117 118 119 121 124 126 128 130 131 133 135 137 139 140 142 143 146 148 149 151 154 156 157 158 158 159 160 161 162 163 163 163 162 161 161 160 158 156 154
93 93 93 92 91 91 90 89 89 88 88 88 88 88 88 88 88 89 89 90 91 92 93 94 95 96 96 97 97 98 100 101 103 104 105 105 106 106 106 106 106 107 109 110 111 112 113 113 114 116 118 121 123 124 125 127 128 130 132 133 134 135 136 138 139 140 141 143 145 146 147 151 154 157 161 164 165 165 164 164 165 165 164 162 160
93 92 91 90 89 88 87 87 87 87 86 86 86 86 86 86 87 87 87 88 88 90 90 91 92 92 93 93 94 95 96 98 99 100 101 102 102 102 102 102 103 105 106 107 108 108 109 109 110 111 112 115 117 119 120 121 121 123 124 126 127 129 130 132 134 136 137 137 137 136 136 139 142 145 150 155 159 160 161 163 165 166 165 164 163
92 91 90 89 88 87 87 87 86 86 86 86 86 86 86 86 86 86 86 87 88 88 88 89 89 90 91 91 91 92 94 95 96 97 98 98 98 98 98 99 100 101 103 104 105 105 106 107 107 107 108 109 111 113 114 114 115 117 118 120 121 122 123 125 128 131 133 133 133 131 130 131 133 135 138 142 146 149 151 155 157 159 160 161 161
92 91 90 90 89 89 88 88 88 88 88 87 87 87 87 87 87 87 87 87 88 88 88 88 88 89 89 90 90 91 92 93 94 95 95 95 95 94 95 95 96 97 98 100 101 102 103 104 104 105 105 106 107 108 109 108 108 110 111 113 115 116 118 120 123 125 126 127 127 126 125 125 127 129 132 133 136 138 140 142 143 145 148 151 153
93 92 91 91 90 89 88 88 88 88 88 88 88 88 88 88 87 87 87 87 87 88 88 88 88 89 89 89 90 89 90 92 93 93 93 93 92 92 92 92 93 93 95 96 98 99 99 101 101 101 102 103 105 106 106 105 104 105 106 106 108 110 112 115 118 120 120 120 120 119 119 119 120 123 126 128 130 133 134 133 131 132 136 138 140
93 92 91 90 89 88 88 88 88 88 88 88 88 88 88 88 87 87 87 86 86 87 87 87 87 88 89 89 88 88 89 91 92 92 91 91 90 90 89 89 90 91 92 93 95 96 97 98 99 99 99 100 101 102 103 103 102 103 103 103 103 105 107 109 111 113 114 114 114 114 114 114 115 117 119 122 124 128 130 129 127 127 128 127 128
92 91 90 89 89 88 88 87 87 87 87 87 87 88 87 87 87 87 86 86 86 86 86 86 86 87 88 88 88 88 89 89 90 90 89 88 88 87 87 86 87 87 89 91 92 94 95 95 96 97 97 97 98 99 99 100 100 101 101 101 102 103 105 106 106 106 106 106 107 108 109 109 110 112 114 116 118 120 123 124 124 124 124 123 122
91 90 89 89 89 88 88 87 87 87 86 86 86 86 86 86 85 86 85 85 85 85 86 86 86 86 88 88 88 89 89 88 88 88 87 86 85 84 84 84 84 84 86 88 89 91 92 93 94 95 95 95 96 96 97 97 97 98 98 99 100 101 102 103 103 102 102 101 101 102 102 102 104 106 109 111 113 115 116 118 119 120 120 120 119
91 90 89 89 89 88 88 87 86 86 85 85 85 85 85 84 84 85 84 84 84 84 85 85 85 85 86 87 88 88 88 87 87 87 87 85 84 83 82 82 82 82 83 85 86 87 88 89 90 91 92 92 93 94 95 95 95 95 96 97 98 98 100 100 100 101 100 99 98 97 96 96 97 100 103 106 108 110 112 113 114 115 115 115 115
90 89 89 89 88 87 87 86 85 85 85 84 84 84 84 84 84 84 83 82 82 82 83 83 82 82 83 84 86 86 85 85 85 85 85 84 83 82 81 81 81 81 81 82 83 84 85 85 86 87 88 89 90 91 92 93 93 93 93 94 95 96 97 98 98 99 99 98 97 95 94 94 95 95 97 100 102 105 107 109 109 110 111 111 110
89 89 88 88 87 86 86 85 85 85 84 84 84 84 84 83 83 83 81 80 79 79 79 79 79 79 80 82 83 83 82 82 83 83 82 81 81 81 80 79 79 80 79 80 80 81 82 82 83 84 85 86 87 88 89 90 90 90 91 92 93 93 94 95 95 96 97 96 96 95 94 95 95 95 95 96 97 99 101 103 103 104 105 106 107
89 88 88 87 86 85 85 85 85 84 84 83 83 82 82 81 81 80 79 78 77 76 76 76 75 76 77 79 80 81 80 80 81 80 79 79 79 79 78 77 77 78 78 78 78 79 80 80 81 82 83 84 84 85 85 86 87 87 88 90 90 91 91 92 93 94 94 93 94 94 94 95 96 95 95 94 94 95 96 97 98 99 100 101 102
89 88 87 86 85 84 84 84 84 83 82 81 80 80 79 78 78 78 77 76 75 74 74 73 74 74 75 76 77 78 78 78 79 78 77 77 77 77 76 75 75 75 76 76 76 77 77 79 80 81 82 83 83 83 83 83 84 84 85 87 88 88 89 90 90 91 91 91 92 92 93 94 96 96 95 94 93 92 93 94 95 94 95 96 97
87 87 86 85 84 83 83 83 82 82 80 79 78 77 77 76 76 76 75 74 73 73 72 72 73 73 73 75 76 76 76 77 77 76 76 76 76 75 75 74 73 73 73 73 73 74 76 77 79 80 80 81 82 81 81 81 81 82 83 84 85 85 86 87 87 88 88 87 88 90 91 93 95 95 95 94 92 92 93 93 93 92 92 92 93
85 84 84 83 83 82 82 81 81 80 79 78 77 77 76 75 75 74 74 73 72 71 71 71 72 72 72 73 74 74 75 76 75 74 74 74 75 74 73 73 72 71 70 69 69 71 73 75 76 77 78 79 79 80 80 80 80 80 81 82 82 81 82 83 84 84 84 83 83 85 88 91 93 95 95 94 92 92 92 92 91 91 91 92 90
83 82 82 82 81 81 80 79 79 78 78 77 76 76 75 74 74 73 73 72 70 69 69 70 70 71 72 72 72 72 74 75 74 73 73 73 74 73 72 72 70 69 68 67 67 69 71 72 73 74 75 75 76 77 78 78 78 79 80 80 80 79 79 79 79 80 79 77 77 80 84 88 90 92 94 94 92 92 92 91 90 90 91 91 89
81 81 80 80 79 78 78 78 77 77 76 75 75 75 74 74 73 72 72 72 71 69 68 68 69 69 71 71 71 71 72 72 73 73 73 72 72 72 71 71 69 68 67 67 67 68 69 70 71 72 72 73 73 74 75 75 76 77 78 79 78 77 77 77 77 76 75 73 72 74 79 83 86 89 91 92 92 92 91 90 89 89 90 90 88
79 79 79 78 77 76 76 76 76 76 75 75 74 74 74 74 74 73 71 70 70 71 69 68 67 68 69 70 70 70 70 70 71 71 72 71 71 71 70 70 68 67 66 66 67 67 67 68 70 71 71 71 71 72 72 73 73 75 76 76 76 75 74 75 75 75 74 72 70 70 74 79 83 85 86 87 89 90 89 88 88 88 88 88 88
79 78 77 76 75 75 75 75 75 74 74 74 74 73 73 74 75 75 73 70 69 70 69 68 67 68 68 68 68 68 68 68 69 69 70 70 70 69 69 69 67 66 66 66 66 67 66 67 68 69 69 69 69 69 70 70 71 72 73 73 72 72 71 72 72 73 74 74 71 68 70 75 80 82 82 82 84 85 86 86 86 86 86 87 87
78 77 76 75 75 75 74 74 73 73 73 73 73 73 73 73 73 74 75 73 72 70 67 65 66 67 68 67 66 66 66 67 67 68 68 68 68 68 68 68 66 65 65 65 66 67 66 66 66 67 67 67 67 67 67 68 69 70 70 69 68 69 69 69 69 70 72 74 73 71 70 72 76 79 79 78 79 80 81 82 82 84 85 85 85
77 77 76 76 75 75 74 73 73 73 72 72 72 72 72 72 71 72 73 74 76 74 69 63 61 62 65 67 67 65 65 65 65 66 66 66 66 66 66 66 66 65 64 65 66 66 66 65 65 65 65 65 66 66 66 66 67 68 67 66 65 66 66 67 67 67 69 71 72 72 72 71 72 75 76 75 75 76 77 78 79 80 82 83 84
77 77 76 75 75 75 74 74 74 73 73 73 72 72 71 71 70 70 70 71 74 75 73 67 62 59 60 63 65 65 64 64 64 64 64 64 64 64 64 64 65 65 65 65 65 65 64 64 64 64 64 64 65 64 64 65 66 65 64 64 64 63 64 65 65 65 66 68 70 71 72 71 71 72 73 73 73 73 74 75 76 77 79 81 81
77 76 76 75 75 75 75 75 75 74 74 73 73 72 71 70 69 69 68 68 70 72 71 70 67 63 60 59 62 63 63 62 62 62 61 62 62 62 62 62 63 64 65 66 65 64 62 61 61 62 63 63 64 64 64 64 64 64 63 62 62 62 62 62 63 64 64 65 67 69 70 70 70 70 71 71 72 71 72 73 74 75 76 77 78
76 75 75 75 75 75 75 75 75 74 74 73 73 72 71 70 69 67 67 67 68 68 68 67 67 65 63 61 60 61 61 60 59 59 59 59 59 59 59 60 61 62 64 65 65 64 62 59 59 59 60 62 62 63 63 63 63 62 61 61 61 61 60 60 61 62 62 63 64 66 67 68 69 69 69 70 70 70 71 71 72 73 73 74 76
75 74 74 74 74 75 75 75 75 74 73 73 72 71 70 69 67 66 66 65 65 65 65 64 64 64 64 63 61 60 60 58 57 56 56 57 57 57 57 57 58 59 62 64 64 63 61 59 57 57 58 59 60 60 61 61 61 61 60 60 61 61 60 59 59 60 60 61 62 63 64 66 67 67 68 69 69 69 70 70 71 71 72 73 74
74 74 74 74 74 74 74 74 74 73 72 72 71 69 68 67 66 65 64 64 63 63 62 62 62 62 63 63 62 61 60 58 56 54 54 55 55 56 56 56 56 57 59 61 62 61 59 58 57 57 57 58 58 59 59 59 59 59 58 59 59 59 59 58 58 58 58 59 60 61 62 64 65 66 66 67 68 68 69 69 70 70 71 72 73
74 74 74 73 73 73 73 73 73 72 71 71 69 68 67 66 66 64 63 62 61 61 60 60 61 60 61 61 61 61 61 59 56 54 52 53 54 55 55 55 55 55 56 58 58 58 57 56 56 57 57 57 57 58 58 58 58 57 56 56 57 57 57 56 57 57 57 57 57 59 60 61 62 64 65 66 66 67 67 68 69 69 69 70 71
74 73 73 72 71 71 71 71 71 70 70 69 67 67 66 65 64 63 62 61 60 59 59 59 59 59 59 59 59 59 59 59 58 55 53 52 52 54 55 56 55 53 53 54 55 55 54 53 54 54 55 55 56 56 57 57 56 56 56 55 54 55 55 54 55 55 56 55 55 56 57 59 60 62 63 64 64 65 65 66 67 67 68 69 70
72 72 72 71 70 69 69 69 69 69 68 67 66 65 64 63 62 62 61 60 59 58 58 57 57 58 57 57 57 57 57 57 57 56 55 53 53 53 54 55 55 53 51 51 52 53 52 51 51 52 52 53 53 54 55 55 55 55 55 55 53 53 53 53 53 54 54 54 54 54 56 57 58 59 61 61 62 62 63 63 64 64 65 66 67
70 70 70 69 68 67 67 67 67 67 65 64 64 63 62 61 61 60 59 59 58 57 57 56 56 56 56 55 55 55 55 54 55 55 55 55 55 55 54 54 53 53 51 50 51 52 52 51 50 49 50 51 51 52 53 53 52 52 53 53 53 52 52 52 52 52 53 53 53 53 54 55 56 58 59 59 60 60 60 61 61 62 62 63 64
68 68 67 67 66 65 65 65 65 64 63 62 62 61 60 60 59 58 58 57 57 56 56 55 55 54 54 53 53 53 53 53 53 53 54 55 56 56 55 53 52 51 50 49 49 51 51 50 49 48 48 49 50 50 51 51 50 50 50 51 51 51 51 51 51 51 52 52 52 52 53 54 55 56 57 58 58 58 59 59 60 60 61 62 62
67 66 66 65 65 64 64 64 63 62 61 60 60 59 59 58 57 57 56 55 55 55 55 54 53 53 52 51 51 51 51 51 51 52 53 55 55 55 55 54 52 51 48 47 48 49 49 49 49 48 48 48 48 49 49 49 49 48 48 48 49 49 49 50 50 51 51 51 52 52 52 52 53 54 55 56 57 57 57 58 58 59 60 60 61
65 64 64 64 64 63 63 62 61 60 59 58 58 58 57 57 56 55 54 53 53 53 53 53 52 51 51 50 50 50 50 50 51 51 52 53 53 53 53 53 53 51 48 46 46 47 48 47 47 48 48 47 47 47 48 48 47 47 47 47 47 48 48 48 49 50 50 51 51 51 51 51 52 52 53 54 55 55 55 56 56 57 58 59 59
63 63 63 63 62 62 61 60 59 58 57 56 56 56 55 55 54 53 52 52 51 51 51 51 50 50 49 49 49 49 49 49 50 50 50 50 50 51 52 52 52 51 48 45 44 45 46 46 45 46 47 47 46 46 46 46 46 46 46 45 46 46 47 47 47 48 49 50 50 50 50 50 51 51 51 52 53 53 53 54 54 55 56 57 58
62 62 61 61 61 61 60 58 57 56 55 55 54 54 53 53 52 51 51 50 50 49 49 49 48 48 48 48 48 48 49 49 49 49 48 48 49 50 50 51 51 51 48 45 43 43 44 44 44 44 45 45 45 45 45 45 44 44 44 44 44 45 45 46 46 47 47 48 49 49 49 49 49 50 50 50 51 51 52 52 53 53 54 55 56
61 60 60 60 60 59 58 57 56 55 54 53 53 52 51 51 50 50 49 49 48 48 47 47 47 46 46 46 47 48 48 48 48 47 46 47 47 48 49 50 50 49 48 45 42 41 42 43 42 42 43 43 43 44 44 44 43 43 44 44 43 44 44 45 45 45 46 47 47 48 48 48 48 48 48 49 49 50 50 51 51 52 53 54 54
60 59 59 59 58 57 56 55 54 53 53 52 51 50 49 49 49 48 48 47 47 46 46 45 45 45 45 46 47 47 47 47 46 45 45 45 46 47 48 48 48 48 47 45 42 41 41 41 41 41 42 42 42 43 43 43 43 42 42 43 42 43 43 44 44 44 45 45 46 46 46 46 47 47 47 47 48 48 49 50 51 51 52 53 53
58 58 58 57 56 55 54 54 53 52 51 50 49 48 47 47 47 47 46 46 46 45 45 44 44 44 45 45 46 46 46 45 45 44 44 44 44 45 46 47 47 47 46 44 42 40 40 40 40 40 41 42 42 42 42 42 42 42 41 41 41 41 42 42 43 43 44 44 45 45 45 45 45 45 46 46 47 47 48 49 50 50 51 52 52
Wind_Direction
288 287 287 286 285 284 283 282 280 279 278 276 275 273 272 270 269 267 265 264 262 261 260 260 259 258 256 255 254 253 253 252 252 252 252 252 252 252 252 253 253 253 253 253 253 253 253 253 253 254 254 255 255 255 255 255 255 255 255 255 255 254 254 253 252 250 249 250 252 253 253 254 255 255 255 256 256 257 257 256 256 255 255 256 255
288 288 287 286 285 284 283 282 281 280 278 277 275 273 272 270 269 267 266 264 263 261 260 259 259 259 258 256 255 254 253 253 253 253 253 253 253 253 253 253 253 253 253 253 253 253 254 254 253 254 254 254 255 255 256 256 256 256 256 256 256 255 255 255 254 252 249 249 251 252 253 254 254 255 255 255 256 256 257 257 257 257 257 257 257
288 287 286 286 285 284 284 283 282 280 279 277 275 274 272 271 269 268 266 265 264 262 261 260 260 259 259 258 257 256 255 254 254 254 254 254 254 254 254 254 254 254 254 254 254 254 254 254 254 254 254 254 254 255 255 256 256 256 256 257 257 257 257 257 256 254 252 250 250 251 252 253 254 254 255 255 256 256 257 257 257 257 257 257 257
287 286 285 285 285 284 284 283 282 281 279 278 276 274 273 271 270 269 267 266 265 264 262 261 261 260 260 259 259 259 258 257 256 255 255 255 255 255 255 255 255 255 255 255 255 255 255 255 254 254 254 254 254 255 255 255 255 256 256 257 257 257 258 258 258 257 256 254 252 252 252 253 254 254 255 255 256 256 256 257 257 257 257 257 257
286 286 285 285 284 284 283 282 281 280 279 278 277 275 274 273 271 270 268 267 266 265 264 263 262 261 261 260 260 260 260 260 259 258 257 257 256 256 256 256 256 256 256 255 255 255 255 255 255 255 255 255 255 255 255 255 256 256 256 256 257 257 257 258 258 258 258 257 255 254 254 254 254 255 255 255 255 256 256 257 257 257 257 257 257
287 287 286 285 284 283 283 282 281 280 279 278 277 276 275 274 272 271 270 269 267 266 265 264 263 263 262 261 261 261 261 261 261 260 260 259 258 257 257 257 257 256 256 256 256 256 256 256 256 256 256 256 256 256 256 256 256 257 257 257 257 257 257 258 258 258 259 258 257 256 256 255 255 255 255 256 256 256 257 257 257 258 258 258 257
288 287 286 286 285 284 283 282 281 280 279 278 277 276 275 274 273 272 270 269 268 267 266 265 265 264 263 263 262 262 261 261 261 262 261 261 261 260 259 258 258 257 257 257 257 256 256 256 256 256 256 256 257 257 256 257 257 257 258 258 258 258 259 259 259 259 259 259 259 258 257 257 256 256 256 256 256 257 257 257 257 258 258 258 257
289 288 287 286 286 285 283 282 281 280 279 278 278 277 276 275 273 272 271 270 269 268 267 267 266 266 265 264 264 263 263 262 262 262 262 262 262 261 261 260 260 259 258 258 257 257 257 257 257 257 257 257 257 257 257 257 257 257 258 258 259 259 260 260 260 261 261 261 261 260 259 258 258 257 257 257 257 257 257 257 257 257 257 258 258
289 288 288 287 286 285 283 282 281 280 279 279 278 277 276 275 274 273 272 271 271 270 269 268 267 267 266 266 265 264 264 264 263 263 263 262 262 262 262 261 261 260 260 259 259 258 258 258 258 258 257 257 257 257 257 257 257 258 258 258 259 259 260 260 261 261 262 262 262 261 261 260 260 259 258 258 257 257 257 257 257 257 257 257 258
289 288 287 286 285 284 283 282 281 280 279 279 278 277 276 275 275 274 273 272 272 271 270 269 268 267 267 266 266 266 265 265 264 264 264 264 263 263 263 262 262 261 261 260 260 259 259 259 258 258 258 258 258 258 258 258 259 259 259 259 259 259 260 260 260 261 261 261 261 261 261 261 261 260 260 259 258 258 258 258 258 258 257 257 257
289 288 287 286 285 284 283 282 281 280 279 279 278 277 276 275 275 274 274 273 272 271 271 270 269 268 268 267 267 267 267 266 266 266 265 265 265 264 264 264 263 263 262 261 261 260 260 259 259 259 259 259 259 259 259 259 259 259 259 259 259 259 260 260 260 260 260 260 260 260 260 260 260 260 260 259 259 259 259 259 259 259 259 259 258
289 288 287 286 286 285 284 283 282 281 281 280 279 278 277 277 276 275 274 274 273 272 271 271 270 269 269 268 268 268 268 267 267 267 266 266 266 266 265 264 264 264 264 263 262 261 261 260 260 260 259 259 259 259 259 259 259 259 259 259 259 259 259 259 259 259 259 259 259 259 258 258 258 258 258 258 258 258 258 258 259 259 259 259 259
289 288 287 286 286 285 285 284 283 283 282 281 280 279 278 277 276 275 275 274 273 273 272 272 271 271 270 270 269 269 269 268 268 268 267 267 267 266 266 265 264 264 264 264 263 263 262 261 261 261 261 260 260 259 259 258 258 258 258 258 259 259 259 259 259 259 259 258 258 258 258 257 257 257 256 257 257 257 257 257 257 258 258 258 259
288 288 287 287 286 286 285 285 284 283 282 281 280 279 278 277 276 275 274 274 273 272 272 271 271 271 270 270 270 269 269 269 268 268 268 267 267 267 267 266 266 265 265 264 264 263 263 262 261 261 261 261 261 260 260 259 259 258 258 258 258 258 258 259 259 259 259 258 258 257 257 256 256 256 255 256 256 256 256 256 257 257 257 257 257
288 288 287 287 287 286 286 285 284 284 283 282 281 280 279 278 277 276 275 274 273 272 272 271 271 271 270 269 269 269 268 268 267 267 267 267 267 267 267 267 267 266 266 266 265 265 264 264 263 262 261 261 261 260 260 260 260 260 259 259 259 258 258 258 258 258 258 258 257 257 257 256 256 255 255 255 255 255 255 256 256 256 256 257 257
289 289 289 288 288 288 287 287 286 285 285 284 283 282 281 280 279 278 277 276 275 274 273 273 272 272 271 270 269 268 268 267 267 266 266 266 266 266 266 266 265 265 266 266 266 266 265 265 265 264 263 262 262 261 260 260 260 259 259 259 259 259 259 258 257 257 257 257 257 257 257 256 256 256 255 255 255 255 255 254 255 255 255 256 256
291 290 290 290 290 289 289 288 287 287 286 285 284 283 283 282 281 280 279 279 278 277 276 275 274 274 273 272 271 270 269 269 268 267 266 266 266 265 265 265 265 265 265 265 265 265 265 265 264 264 264 264 263 263 262 262 261 260 259 259 259 259 259 258 258 257 257 257 257 257 257 256 256 255 255 255 255 255 255 254 254 254 255 255 255
291 291 291 290 290 289 289 288 287 287 286 285 285 284 284 283 282 282 281 280 280 279 278 278 277 276 275 273 273 272 271 270 269 268 268 267 266 266 266 265 265 265 264 264 264 264 264 264 263 263 263 263 263 263 264 263 263 262 261 260 260 259 258 258 258 258 257 257 257 257 257 256 256 255 255 255 255 255 255 255 254 254 254 254 254
290 290 290 289 289 289 288 288 287 287 286 286 285 285 284 284 283 283 282 282 281 281 280 279 278 278 277 276 275 274 273 271 270 270 269 268 268 267 267 266 266 265 265 265 264 264 264 263 263 263 262 262 262 262 263 263 263 263 263 262 261 261 260 259 258 258 257 257 257 257 257 256 256 255 255 255 254 254 255 255 255 255 254 254 253
290 290 290 289 289 289 288 287 287 287 286 286 285 285 285 284 284 283 283 282 282 281 281 280 280 279 279 278 277 276 274 273 273 272 271 270 269 269 268 267 266 265 265 265 264 264 264 263 263 263 262 262 262 261 261 261 261 262 262 262 262 261 261 261 260 259 259 258 257 257 256 255 255 255 255 255 254 254 254 254 254 254 254 254 253
290 290 290 290 289 288 288 288 287 287 286 286 285 285 284 284 283 283 282 282 282 281 281 280 280 279 279 278 278 277 276 275 275 274 273 272 271 270 269 268 267 266 266 265 265 264 264 264 263 263 263 262 262 262 261 261 260 260 260 260 260 260 261 261 262 261 261 260 258 257 256 255 255 254 254 254 254 254 253 253 253 253 253 252 252
290 290 290 289 289 289 288 288 288 287 287 286 285 285 284 284 283 283 282 282 281 281 280 280 279 279 278 278 277 276 276 276 275 275 274 273 273 272 271 269 268 267 266 266 266 265 265 265 264 264 264 263 262 262 261 261 260 260 259 259 259 260 260 260 261 261 261 261 260 259 258 257 255 254 253 253 253 253 253 252 252 251 251 251 250
290 290 290 289 289 289 289 288 288 287 287 286 286 285 285 284 284 283 283 282 282 281 280 280 280 279 279 278 277 277 276 276 275 275 274 274 273 272 271 270 269 268 267 267 266 266 266 265 265 265 265 264 264 263 262 261 261 260 259 259 259 259 259 259 259 260 260 260 261 260 259 258 257 255 253 252 252 252 252 251 251 250 250 250 249
290 290 289 289 289 289 289 288 288 287 287 287 286 286 285 285 284 283 283 282 281 281 280 280 279 279 279 278 278 277 277 277 276 275 275 274 274 273 272 271 270 269 269 268 268 267 267 267 266 266 265 265 264 264 263 263 262 261 260 259 259 258 258 258 258 258 258 259 259 259 259 258 258 256 255 253 252 251 251 251 250 250 250 249 249
290 290 290 289 289 289 289 288 288 287 287 287 286 286 285 285 284 283 283 282 281 281 281 280 280 279 279 278 278 278 278 277 276 276 276 275 275 274 273 272 271 271 270 269 269 269 269 268 268 267 266 266 265 264 263 263 263 262 261 261 260 259 258 257 257 257 257 257 258 258 258 258 257 257 256 254 253 252 252 251 251 250 249 249 248
290 290 290 290 289 289 289 288 288 288 287 287 286 285 285 284 283 283 283 282 282 282 282 281 281 280 279 278 278 278 278 277 277 277 277 276 275 275 274 273 272 271 271 271 270 270 270 270 269 269 268 267 266 266 265 264 263 262 261 261 260 260 259 258 257 257 256 256 256 256 256 257 257 256 256 255 254 253 252 252 251 250 249 248 247
290 290 290 290 289 289 289 288 288 288 287 287 286 285 285 284 284 283 283 283 282 282 282 281 281 280 279 279 278 278 278 277 277 277 277 277 276 276 275 274 273 272 271 271 271 271 270 269 269 269 269 269 268 267 267 266 264 263 262 261 260 259 259 258 258 257 256 255 255 255 255 255 256 256 256 255 254 253 253 252 251 251 250 248 247
289 289 289 289 289 289 289 288 288 288 288 287 287 286 286 285 284 284 283 283 283 282 282 281 280 280 279 278 278 278 278 277 277 277 277 277 276 276 275 275 274 273 272 271 270 270 269 268 268 268 268 268 268 268 268 267 267 266 265 263 262 261 260 259 258 257 256 255 254 254 254 254 254 254 255 255 254 253 252 252 251 250 250 249 247
289 289 289 289 289 289 289 288 288 288 288 288 287 287 287 286 286 285 285 284 283 282 282 281 280 280 279 278 278 277 277 277 278 277 277 277 276 276 276 275 275 274 273 272 271 270 269 269 268 267 267 267 267 267 267 267 267 267 266 266 265 264 262 261 260 258 257 254 253 252 252 252 252 252 253 254 253 253 252 251 250 250 249 249 247
288 288 288 288 288 289 288 288 288 288 288 288 288 288 288 287 286 286 286 285 285 283 282 281 281 280 279 278 278 277 277 277 278 277 277 276 276 276 276 275 275 275 274 273 272 271 270 270 269 268 268 267 267 266 266 266 266 266 266 266 265 265 265 264 263 261 259 256 252 251 251 252 251 251 251 252 252 252 252 251 250 249 249 249 248
289 289 289 289 289 289 289 289 289 289 289 289 289 289 288 288 287 286 285 285 285 284 283 282 281 280 279 279 279 278 278 278 278 278 277 277 277 277 276 276 276 275 274 274 272 271 270 270 270 269 269 268 268 267 266 266 265 265 265 264 264 264 263 263 263 263 262 259 255 251 250 251 252 251 251 250 251 251 251 251 250 249 248 248 247
290 290 290 290 290 289 289 289 289 289 289 289 289 289 288 288 288 288 287 285 284 283 282 282 282 281 280 279 279 279 279 279 278 278 278 278 278 277 277 277 277 276 276 275 274 273 272 271 270 270 270 269 268 267 267 266 266 265 264 264 264 263 262 261 261 261 262 261 259 254 251 251 252 252 252 250 250 250 250 250 249 249 248 247 246
291 291 290 290 290 290 290 290 289 289 289 288 288 288 288 287 288 288 288 287 285 282 281 281 281 282 281 280 279 279 279 279 279 279 279 279 279 278 278 278 278 277 276 276 275 274 273 272 272 271 271 271 270 269 268 267 266 265 264 264 263 263 262 261 260 259 259 260 260 258 254 252 252 253 253 252 250 250 250 250 249 248 248 247 246
291 291 290 291 291 291 291 290 290 289 289 288 288 288 287 287 287 287 287 287 287 285 284 282 280 280 281 281 281 280 279 278 278 278 279 279 279 279 279 279 278 277 276 275 275 274 274 273 273 272 272 271 270 269 269 268 267 266 265 264 263 262 261 261 259 258 257 258 258 258 257 255 253 253 253 252 251 250 250 249 248 247 247 247 245
290 290 291 291 292 292 291 291 291 290 289 289 289 288 287 287 287 286 286 286 286 286 286 286 283 280 279 279 280 280 279 279 279 278 279 279 279 279 279 279 278 278 276 275 274 273 274 274 274 273 272 271 270 269 268 268 267 267 266 265 264 262 261 260 259 257 256 256 256 257 257 256 255 254 253 253 251 250 249 248 247 246 246 246 246
290 291 291 292 292 292 291 291 291 290 290 289 289 288 288 287 286 286 286 285 284 284 286 287 286 284 281 279 278 278 278 278 278 278 278 278 278 278 278 278 277 277 276 275 274 274 273 273 273 273 272 272 271 270 269 269 268 267 267 266 265 263 261 260 259 258 256 255 255 255 255 256 255 254 253 253 252 250 249 248 247 246 245 245 245
291 291 292 292 292 291 291 290 290 290 290 289 288 288 287 287 287 286 285 284 283 284 285 286 286 285 284 282 280 278 278 278 278 277 277 276 276 275 275 275 275 275 275 274 274 274 273 272 271 270 270 270 270 270 270 269 269 268 268 267 265 264 262 260 259 258 257 255 254 254 254 254 254 254 253 252 252 251 249 248 247 246 245 244 243
292 292 292 291 291 291 290 290 290 289 289 289 288 288 288 287 287 286 285 284 284 284 285 285 285 285 284 283 282 280 279 278 278 278 277 277 276 275 274 274 274 274 275 275 275 275 275 274 273 271 270 270 269 269 269 268 268 268 267 267 266 265 264 262 260 258 257 256 255 254 253 253 253 253 253 252 251 250 249 248 246 245 244 243 242
292 292 291 291 291 290 290 289 289 289 289 288 288 288 288 287 287 286 285 285 285 285 284 284 284 284 284 284 283 282 281 280 278 277 277 276 276 276 275 273 272 272 273 274 275 276 277 277 276 274 273 272 271 270 269 269 268 267 266 266 265 265 264 263 261 260 258 256 255 254 253 253 253 252 252 252 251 250 249 248 246 245 243 242 241
292 291 291 291 290 290 289 289 289 289 289 288 288 288 288 287 287 287 287 286 285 284 284 284 283 283 283 283 283 283 283 282 281 279 278 277 276 276 275 273 271 270 271 273 274 275 275 276 276 275 274 273 272 272 271 270 269 268 267 265 264 264 263 262 261 260 259 257 255 255 254 253 253 252 252 251 251 250 249 249 248 246 244 243 242
291 291 291 290 290 289 289 289 288 288 288 288 288 288 288 287 287 287 287 286 285 284 284 283 282 282 282 282 282 282 283 284 283 283 281 279 278 277 276 274 273 272 272 273 273 274 274 273 273 273 272 272 271 271 271 270 270 270 268 267 265 265 264 262 261 260 259 257 256 255 254 253 252 252 252 251 251 250 250 249 249 248 247 245 244
290 290 290 290 289 289 288 288 288 288 288 288 288 288 288 288 288 287 286 286 285 284 283 282 282 281 281 281 281 282 282 283 284 284 284 282 280 278 277 276 276 276 275 275 275 274 274 273 273 272 272 271 270 270 270 270 269 269 269 268 267 265 264 263 261 260 259 258 256 254 253 252 252 252 252 251 251 251 250 250 250 249 249 248 247
290 290 289 289 289 288 288 287 287 287 287 288 287 287 287 287 286 286 286 285 284 284 283 282 281 281 281 281 281 281 282 282 282 283 283 282 281 279 278 278 279 279 279 278 277 277 276 275 274 273 272 271 271 270 270 269 269 269 269 268 267 266 265 264 262 261 260 259 257 255 253 252 252 251 251 250 250 249 249 249 249 248 248 248 247
290 289 289 289 288 288 287 286 286 287 287 287 287 287 287 286 285 285 284 284 283 283 282 281 281 280 280 281 281 281 281 281 281 281 281 280 280 280 280 280 280 279 279 279 279 278 278 277 277 275 274 273 272 271 271 270 269 269 268 268 267 266 265 264 263 261 260 259 257 255 254 252 252 251 251 250 250 249 248 247 246 246 245 245 245
290 290 289 288 288 287 286 286 287 287 287 287 287 286 285 285 284 284 283 283 283 282 281 281 281 280 280 280 280 279 279 279 279 278 278 278 279 280 281 281 280 280 279 279 278 278 278 278 278 277 276 274 273 272 272 272 271 270 269 268 267 266 265 263 263 261 260 258 257 256 254 253 252 251 251 251 250 249 248 247 246 245 244 243 243
290 289 288 287 287 287 286 287 287 287 287 286 285 285 284 284 284 283 283 282 281 281 281 281 280 280 280 279 279 278 278 277 277 276 276 278 279 280 281 281 281 280 279 278 277 277 277 277 277 277 276 275 274 274 273 272 272 271 270 269 267 266 265 263 262 261 260 259 258 256 255 253 252 251 251 251 251 250 249 248 247 246 245 243 242
289 288 287 287 287 287 286 287 287 287 286 285 285 284 284 284 283 283 282 281 280 280 280 280 280 280 279 279 278 278 277 276 276 276 277 278 279 279 280 280 280 280 279 278 277 277 276 276 276 276 276 276 275 274 274 273 272 271 270 269 268 267 265 264 262 262 261 259 258 257 255 254 253 252 251 250 250 250 250 249 248 247 246 244 243
288 288 287 287 287 286 287 287 287 286 286 285 284 284 283 283 283 282 281 280 280 280 279 279 279 278 278 278 278 277 277 276 277 278 279 279 279 279 279 279 279 279 279 279 278 277 277 277 276 276 276 276 275 275 274 273 272 271 271 269 268 267 266 265 263 262 261 260 259 258 256 255 253 252 251 250 250 250 249 248 248 247 246 245 244
288 288 287 287 287 287 287 287 287 286 285 285 284 283 283 282 282 281 280 280 280 279 279 278 278 277 277 277 277 276 276 277 278 278 279 279 278 278 278 278 279 279 280 280 279 279 278 277 277 276 275 275 275 274 274 273 273 272 271 270 268 267 266 265 264 262 261 260 259 258 257 256 254 253 252 251 250 249 249 248 247 246 246 244 243
288 288 287 287 287 287 287 287 286 285 285 284 283 283 282 281 281 280 280 280 279 279 278 277 277 277 277 276 276 276 277 278 278 279 278 278 278 278 278 278 279 280 281 281 281 281 279 278 278 277 277 276 275 275 275 274 273 272 271 270 269 267 266 265 264 263 262 260 260 259 258 257 255 253 252 251 250 249 248 248 247 246 245 244 242
288 287 287 287 287 287 286 286 285 285 284 283 283 282 281 280 280 279 279 279 278 278 278 277 277 277 276 276 276 277 277 278 279 279 278 277 277 277 277 278 279 280 282 282 283 282 280 279 278 278 278 277 276 276 275 274 273 272 271 270 269 267 265 264 263 262 261 260 259 259 258 257 255 254 252 251 250 249 248 248 247 246 245 244 242
Height
10417 10414 10411 10408 10406 10404 10402 10401 10400 10398 10396 10394 10392 10390 10388 10387 10385 10384 10382 10381 10381 10380 10379 10378 10377 10377 10377 10378 10378 10379 10379 10380 10381 10384 10386 10388 10390 10392 10394 10397 10400 10404 10406 10408 10410 10411 10416 10421 10423 10422 10421 10424 10428 10430 10431 10432 10434 10437 10440 10444 10447 10451 10456 10462 10475 10493 10495 10486 10483 10485 10483 10484 10488 10490 10491 10493 10495 10496 10500 10506 10509 10511 10514 10517 10519
10399 10395 10391 10388 10386 10384 10382 10380 10379 10377 10375 10373 10371 10369 10367 10365 10363 10362 10361 10360 10359 10359 10359 10358 10357 10356 10356 10356 10356 10357 10357 10358 10359 10362 10365 10368 10370 10371 10374 10377 10380 10383 10386 10389 10390 10391 10395 10400 10405 10404 10402 10405 10410 10412 10412 10412 10413 10417 10420 10422 10427 10430 10434 10440 10452 10468 10479 10476 10470 10470 10470 10469 10474 10476 10475 10477 10480 10480 10485 10491 10495 10497 10501 10503 10505
10382 10377 10373 10370 10367 10364 10362 10360 10357 10355 10353 10351 10350 10348 10346 10345 10343 10341 10340 10338 10338 10338 10337 10337 10336 10335 10335 10334 10335 10335 10336 10336 10338 10340 10343 10346 10350 10352 10353 10356 10359 10363 10365 10368 10370 10371 10374 10379 10383 10384 10382 10385 10391 10393 10393 10393 10393 10396 10400 10402 10406 10410 10412 10417 10427 10443 10457 10462 10458 10456 10455 10455 10459 10462 10460 10461 10465 10465 10470 10475 10478 10482 10486 10488 10491
10363 10360 10356 10353 10350 10347 10344 10340 10337 10334 10331 10330 10329 10327 10326 10325 10323 10322 10320 10318 10317 10316 10316 10316 10316 10315 10315 10314 10314 10314 10314 10315 10317 10319 10322 10325 10328 10331 10333 10335 10338 10342 10345 10347 10349 10350 10352 10356 10360 10361 10361 10364 10370 10372 10372 10373 10374 10376 10380 10383 10385 10390 10392 10394 10403 10416 10430 10442 10445 10442 10439 10440 10444 10446 10445 10447 10449 10450 10453 10458 10460 10465 10470 10473 10476
10344 10342 10339 10336 10334 10330 10327 10323 10318 10315 10311 10309 10308 10307 10306 10305 10304 10303 10302 10300 10298 10296 10296 10295 10295 10295 10295 10294 10294 10293 10293 10294 10296 10298 10301 10303 10306 10310 10313 10315 10318 10321 10324 10327 10329 10330 10331 10334 10337 10337 10337 10341 10348 10351 10350 10351 10354 10356 10360 10364 10365 10368 10371 10374 10380 10391 10403 10417 10427 10426 10424 10427 10429 10429 10430 10431 10433 10435 10438 10441 10444 10448 10453 10456 10460
10325 10323 10321 10318 10316 10313 10310 10306 10302 10297 10294 10292 10290 10289 10288 10287 10285 10284 10283 10281 10279 10277 10276 10275 10275 10275 10275 10275 10275 10274 10274 10274 10275 10278 10280 10282 10285 10289 10292 10295 10298 10300 10303 10306 10307 10309 10311 10313 10315 10315 10315 10318 10324 10328 10329 10329 10332 10335 10338 10343 10344 10345 10350 10355 10360 10367 10377 10391 10404 10408 10408 10410 10413 10415 10414 10413 10415 10420 10423 10425 10428 10431 10434 10438 10442
10307 10304 10302 10300 10298 10296 10293 10289 10285 10281 10278 10276 10274 10272 10270 10269 10267 10265 10263 10262 10260 10258 10257 10257 10256 10256 10256 10256 10255 10255 10256 10256 10257 10258 10260 10262 10264 10267 10270 10274 10277 10280 10282 10284 10285 10287 10289 10292 10294 10295 10295 10297 10300 10305 10307 10307 10308 10312 10316 10319 10321 10323 10327 10334 10339 10344 10354 10367 10379 10388 10391 10392 10395 10398 10399 10396 10397 10404 10407 10408 10410 10412 10414 10418 10421
10290 10287 10285 10283 10281 10279 10275 10272 10268 10265 10263 10260 10258 10256 10253 10251 10249 10247 10245 10244 10243 10242 10241 10240 10239 10238 10238 10237 10236 10236 10236 10237 10238 10239 10241 10243 10244 10247 10250 10252 10256 10259 10261 10263 10264 10265 10267 10269 10271 10274 10275 10276 10279 10282 10284 10285 10286 10290 10295 10297 10298 10301 10305 10312 10317 10322 10331 10342 10354 10364 10370 10373 10376 10381 10382 10380 10381 10387 10388 10386 10389 10394 10395 10397 10403
10275 10272 10270 10267 10265 10261 10258 10255 10252 10249 10247 10245 10242 10240 10237 10234 10232 10230 10228 10227 10226 10225 10224 10223 10223 10221 10220 10218 10217 10217 10217 10218 10218 10219 10222 10224 10225 10227 10230 10233 10235 10238 10240 10242 10243 10243 10244 10246 10248 10251 10253 10254 10257 10259 10261 10263 10265 10270 10277 10278 10278 10281 10287 10292 10298 10303 10309 10318 10330 10339 10345 10350 10357 10361 10362 10363 10365 10367 10365 10362 10369 10376 10376 10378 10384
10260 10257 10254 10251 10248 10244 10241 10238 10236 10233 10231 10228 10226 10224 10221 10219 10216 10214 10212 10210 10209 10208 10207 10206 10205 10205 10203 10201 10199 10199 10199 10199 10200 10200 10202 10203 10205 10207 10211 10214 10216 10217 10220 10222 10223 10223 10223 10224 10227 10229 10230 10231 10234 10236 10238 10241 10245 10249 10256 10260 10260 10262 10268 10274 10279 10284 10289 10295 10305 10315 10320 10326 10336 10339 10339 10342 10344 10343 10342 10343 10348 10354 10355 10358 10366
10245 10241 10238 10234 10231 10228 10225 10222 10220 10217 10215 10213 10210 10208 10205 10203 10201 10198 10196 10194 10193 10191 10190 10188 10187 10187 10187 10185 10184 10182 10182 10182 10182 10182 10183 10183 10185 10189 10194 10197 10197 10197 10198 10200 10203 10204 10204 10203 10205 10207 10209 10210 10211 10213 10217 10220 10224 10227 10232 10238 10242 10243 10247 10252 10258 10263 10266 10271 10280 10290 10296 10304 10315 10318 10316 10319 10321 10319 10320 10322 10324 10329 10332 10337 10347
10228 10224 10221 10217 10214 10211 10208 10206 10204 10202 10200 10197 10195 10193 10190 10188 10185 10183 10181 10179 10177 10175 10172 10171 10170 10169 10170 10169 10169 10168 10167 10166 10165 10165 10165 10164 10166 10170 10176 10179 10179 10177 10177 10178 10181 10184 10185 10185 10186 10187 10189 10189 10190 10193 10197 10200 10203 10206 10208 10213 10218 10221 10224 10227 10233 10238 10241 10245 10253 10264 10272 10281 10291 10295 10294 10295 10297 10295 10296 10299 10302 10307 10311 10315 10324
10211 10208 10204 10201 10198 10195 10192 10190 10188 10186 10184 10181 10179 10177 10175 10172 10170 10168 10166 10163 10161 10159 10156 10154 10153 10153 10153 10153 10153 10152 10151 10150 10148 10147 10147 10148 10148 10151 10156 10160 10161 10160 10159 10158 10160 10163 10165 10166 10169 10170 10169 10168 10169 10172 10175 10178 10181 10183 10186 10190 10194 10198 10200 10202 10206 10212 10216 10219 10224 10235 10248 10255 10262 10270 10271 10268 10269 10271 10275 10280 10284 10286 10289 10294 10303
10196 10193 10189 10186 10184 10181 10178 10176 10173 10170 10167 10165 10163 10161 10159 10156 10154 10152 10151 10149 10146 10143 10140 10139 10138 10137 10137 10137 10137 10136 10134 10132 10131 10130 10130 10131 10131 10133 10137 10140 10142 10142 10141 10140 10141 10143 10145 10148 10151 10153 10150 10147 10148 10150 10153 10157 10160 10162 10165 10169 10173 10177 10179 10180 10183 10187 10190 10193 10196 10206 10220 10226 10230 10241 10246 10241 10240 10248 10255 10259 10262 10263 10267 10275 10284
10181 10178 10175 10172 10169 10167 10164 10161 10158 10155 10152 10149 10146 10144 10142 10139 10137 10135 10134 10133 10130 10128 10125 10124 10123 10122 10122 10122 10122 10121 10118 10115 10114 10113 10113 10114 10115 10117 10121 10123 10123 10123 10122 10121 10122 10124 10126 10127 10130 10133 10133 10130 10129 10130 10133 10137 10141 10144 10146 10149 10152 10156 10159 10161 10163 10162 10163 10165 10169 10179 10193 10200 10203 10211 10218 10217 10216 10223 10231 10234 10236 10240 10245 10253 10264
10165 10161 10159 10156 10154 10151 10148 10145 10142 10139 10136 10133 10130 10127 10125 10122 10120 10119 10117 10115 10113 10111 10110 10109 10108 10106 10105 10104 10105 10104 10101 10098 10097 10097 10097 10098 10100 10102 10105 10106 10107 10106 10105 10104 10105 10106 10107 10108 10110 10112 10113 10113 10111 10111 10114 10118 10123 10127 10128 10129 10132 10135 10138 10140 10138 10136 10137 10140 10147 10156 10169 10179 10183 10185 10190 10192 10192 10197 10203 10205 10209 10217 10224 10232 10242
10148 10146 10143 10141 10138 10135 10132 10129 10126 10123 10120 10117 10114 10111 10109 10107 10105 10103 10102 10099 10096 10095 10094 10093 10092 10090 10089 10087 10087 10087 10085 10081 10080 10081 10080 10082 10085 10087 10089 10090 10091 10092 10090 10088 10089 10090 10090 10090 10091 10093 10094 10094 10093 10092 10094 10099 10105 10108 10109 10112 10114 10115 10118 10117 10112 10111 10116 10122 10129 10138 10147 10157 10162 10163 10165 10167 10168 10171 10173 10177 10188 10198 10203 10209 10218
10135 10132 10129 10126 10124 10121 10118 10115 10112 10108 10105 10102 10099 10097 10094 10091 10090 10089 10087 10085 10082 10080 10079 10078 10076 10073 10072 10070 10070 10070 10069 10064 10062 10063 10064 10065 10069 10072 10074 10075 10076 10076 10075 10073 10072 10072 10073 10072 10073 10076 10077 10076 10075 10075 10077 10081 10086 10088 10090 10093 10096 10097 10096 10094 10090 10093 10098 10104 10112 10121 10128 10136 10141 10142 10143 10146 10148 10149 10147 10154 10170 10178 10178 10184 10197
10122 10119 10116 10113 10110 10108 10105 10102 10098 10095 10092 10089 10086 10082 10079 10077 10076 10074 10072 10071 10069 10066 10064 10063 10061 10057 10055 10054 10053 10053 10052 10048 10045 10046 10048 10049 10052 10056 10058 10060 10061 10060 10059 10057 10055 10055 10056 10056 10056 10058 10060 10060 10059 10060 10062 10065 10068 10070 10071 10074 10078 10077 10074 10072 10073 10077 10081 10087 10095 10102 10108 10115 10119 10121 10123 10126 10129 10130 10128 10135 10149 10154 10154 10164 10179
10109 10106 10103 10100 10097 10094 10091 10088 10085 10082 10079 10076 10072 10069 10066 10064 10062 10060 10058 10056 10055 10053 10050 10049 10048 10044 10040 10038 10037 10035 10034 10033 10030 10030 10032 10034 10037 10040 10042 10043 10044 10044 10042 10041 10039 10038 10038 10039 10039 10040 10042 10044 10044 10045 10047 10049 10051 10053 10054 10056 10060 10058 10054 10053 10057 10061 10065 10071 10077 10081 10087 10094 10098 10101 10104 10105 10108 10111 10111 10116 10126 10130 10134 10144 10157
10096 10093 10090 10086 10083 10080 10077 10074 10072 10069 10066 10063 10060 10056 10053 10052 10049 10047 10045 10044 10042 10039 10037 10035 10034 10031 10027 10024 10022 10019 10017 10017 10016 10015 10016 10019 10021 10023 10025 10026 10027 10028 10026 10023 10023 10022 10021 10022 10022 10022 10024 10026 10027 10028 10030 10031 10034 10037 10039 10039 10041 10041 10038 10039 10043 10044 10047 10053 10057 10060 10068 10075 10079 10082 10084 10085 10088 10091 10092 10096 10103 10109 10113 10122 10133
10082 10079 10076 10072 10069 10066 10063 10060 10057 10055 10052 10049 10047 10043 10040 10039 10036 10033 10032 10031 10029 10026 10023 10021 10020 10018 10014 10010 10007 10004 10003 10003 10003 10001 10000 10003 10006 10007 10008 10009 10010 10011 10010 10008 10007 10006 10006 10006 10006 10006 10007 10009 10010 10011 10012 10013 10017 10021 10022 10022 10024 10025 10024 10026 10028 10028 10030 10034 10038 10043 10049 10055 10059 10062 10063 10065 10068 10070 10071 10074 10081 10087 10092 10100 10109
10068 10065 10062 10058 10055 10052 10050 10047 10044 10041 10038 10035 10033 10030 10027 10025 10022 10019 10018 10018 10016 10013 10010 10008 10007 10005 10001 9996 9992 9990 9990 9989 9988 9987 9986 9988 9990 9991 9992 9993 9993 9994 9994 9993 9992 9991 9991 9991 9991 9991 9991 9992 9993 9993 9994 9996 9999 10003 10006 10006 10008 10009 10009 10011 10013 10014 10015 10018 10021 10026 10031 10034 10036 10040 10042 10045 10047 10049 10050 10053 10060 10067 10072 10079 10087
10054 10051 10048 10045 10042 10039 10037 10034 10030 10028 10025 10022 10020 10017 10013 10011 10008 10005 10004 10003 10002 10000 9997 9995 9994 9992 9988 9982 9977 9975 9976 9975 9973 9972 9974 9974 9974 9975 9977 9978 9978 9978 9979 9979 9977 9976 9976 9976 9976 9976 9975 9975 9975 9976 9978 9979 9981 9985 9988 9989 9990 9993 9994 9996 9998 9998 10000 10004 10006 10009 10013 10014 10015 10018 10022 10024 10027 10029 10032 10036 10042 10049 10054 10060 10067
10040 10037 10034 10032 10029 10026 10024 10020 10017 10015 10012 10009 10007 10004 10000 9998 9995 9992 9990 9989 9988 9987 9984 9983 9982 9979 9975 9970 9965 9962 9962 9962 9959 9959 9960 9961 9960 9959 9962 9963 9963 9963 9963 9964 9963 9963 9963 9962 9960 9960 9959 9958 9960 9961 9963 9964 9965 9968 9969 9969 9972 9975 9978 9980 9982 9983 9986 9990 9991 9993 9996 9996 9996 9998 10002 10005 10009 10014 10018 10020 10025 10031 10036 10042 10049
10027 10024 10021 10019 10016 10013 10010 10007 10004 10001 9999 9996 9994 9991 9988 9985 9982 9979 9977 9976 9975 9974 9972 9971 9969 9966 9962 9958 9953 9951 9949 9948 9947 9946 9947 9947 9946 9945 9946 9948 9949 9950 9950 9950 9950 9950 9949 9947 9945 9943 9943 9943 9944 9946 9948 9949 9950 9951 9952 9952 9954 9957 9959 9962 9966 9968 9971 9975 9976 9977 9980 9979 9978 9980 9984 9988 9993 9998 10002 10003 10007 10013 10019 10025 10031
10014 10011 10008 10006 10004 10001 9998 9994 9991 9988 9985 9983 9980 9978 9975 9973 9970 9967 9965 9964 9963 9961 9960 9958 9955 9952 9950 9946 9942 9940 9938 9935 9935 9936 9935 9934 9933 9932 9932 9933 9935 9936 9937 9937 9938 9937 9935 9932 9930 9929 9929 9928 9928 9930 9932 9933 9934 9935 9936 9936 9937 9941 9943 9945 9949 9952 9956 9959 9962 9963 9965 9964 9963 9964 9968 9972 9977 9982 9984 9986 9991 9997 10003 10007 10012
10003 9999 9996 9994 9991 9988 9985 9982 9978 9975 9972 9970 9967 9965 9962 9960 9957 9955 9953 9952 9951 9949 9947 9945 9942 9939 9937 9934 9931 9929 9926 9923 9924 9925 9923 9921 9920 9920 9920 9920 9921 9922 9923 9925 9926 9924 9920 9919 9918 9917 9916 9915 9915 9916 9917 9917 9918 9918 9918 9919 9921 9925 9927 9929 9933 9936 9940 9945 9948 9949 9949 9948 9948 9949 9950 9954 9960 9964 9966 9969 9975 9981 9985 9988 9994
9991 9988 9985 9982 9979 9976 9973 9969 9967 9963 9960 9958 9955 9952 9949 9946 9944 9942 9939 9938 9938 9938 9936 9933 9930 9927 9924 9921 9920 9919 9915 9912 9913 9913 9912 9910 9908 9908 9907 9907 9908 9909 9911 9912 9913 9910 9907 9906 9905 9904 9903 9904 9904 9904 9903 9903 9904 9903 9903 9904 9906 9909 9911 9913 9917 9920 9924 9929 9933 9934 9932 9931 9933 9933 9934 9937 9943 9946 9948 9953 9960 9965 9967 9970 9979
9980 9976 9973 9970 9967 9964 9961 9957 9954 9951 9949 9946 9943 9940 9936 9933 9931 9930 9928 9925 9923 9924 9924 9922 9919 9916 9912 9909 9908 9907 9905 9903 9901 9900 9900 9898 9897 9896 9896 9896 9897 9898 9898 9899 9899 9897 9895 9894 9892 9891 9891 9892 9892 9891 9891 9891 9891 9891 9890 9890 9892 9894 9896 9898 9900 9904 9908 9913 9917 9917 9916 9915 9916 9917 9918 9922 9926 9928 9932 9938 9944 9949 9951 9956 9964
9967 9963 9961 9959 9956 9952 9949 9946 9943 9939 9937 9934 9932 9929 9925 9920 9916 9916 9916 9915 9912 9909 9909 9910 9909 9905 9902 9899 9896 9895 9895 9894 9892 9889 9888 9887 9886 9885 9884 9884 9885 9886 9887 9886 9885 9884 9883 9882 9879 9878 9879 9879 9879 9879 9879 9879 9879 9879 9878 9878 9879 9881 9884 9885 9886 9889 9892 9895 9898 9901 9901 9900 9901 9902 9904 9908 9910 9912 9917 9922 9928 9933 9938 9943 9949
9954 9950 9948 9946 9943 9940 9937 9934 9931 9928 9925 9922 9919 9918 9915 9911 9905 9900 9899 9902 9902 9900 9898 9897 9896 9893 9891 9889 9887 9885 9883 9882 9881 9879 9877 9876 9875 9874 9873 9872 9873 9874 9874 9873 9872 9870 9870 9870 9868 9866 9866 9866 9866 9866 9866 9866 9866 9866 9866 9866 9867 9868 9871 9873 9875 9876 9877 9877 9881 9885 9887 9886 9886 9887 9890 9894 9896 9899 9903 9908 9913 9918 9923 9928 9933
9941 9938 9936 9934 9931 9928 9925 9923 9920 9917 9914 9911 9908 9906 9903 9901 9897 9891 9885 9883 9884 9886 9888 9889 9887 9882 9878 9877 9877 9876 9874 9872 9870 9868 9867 9865 9864 9863 9861 9860 9861 9862 9862 9861 9859 9857 9858 9858 9856 9855 9854 9854 9854 9854 9854 9854 9853 9853 9854 9856 9856 9856 9858 9860 9863 9864 9864 9864 9865 9868 9871 9872 9873 9874 9877 9880 9884 9887 9890 9894 9899 9903 9907 9913 9918
9930 9927 9924 9922 9919 9916 9913 9911 9909 9906 9903 9900 9897 9895 9892 9890 9888 9884 9879 9872 9866 9865 9870 9877 9880 9877 9870 9865 9864 9864 9864 9863 9861 9859 9857 9856 9854 9853 9851 9849 9849 9850 9850 9849 9847 9845 9845 9846 9845 9844 9843 9842 9842 9842 9842 9841 9840 9841 9842 9844 9844 9845 9846 9847 9850 9852 9852 9852 9852 9853 9855 9858 9861 9862 9864 9867 9871 9874 9877 9881 9885 9889 9892 9897 9902
9918 9915 9913 9910 9908 9905 9902 9899 9896 9894 9891 9889 9886 9884 9881 9879 9877 9875 9872 9868 9860 9854 9853 9857 9863 9866 9865 9859 9854 9852 9853 9852 9851 9849 9848 9846 9844 9842 9841 9840 9838 9837 9837 9836 9835 9835 9835 9835 9833 9832 9832 9831 9830 9830 9830 9829 9829 9830 9831 9832 9832 9833 9834 9835 9837 9839 9840 9840 9841 9841 9842 9845 9847 9850 9852 9854 9857 9861 9864 9867 9871 9875 9878 9881 9886
9907 9904 9902 9899 9896 9893 9890 9887 9884 9882 9879 9877 9874 9872 9870 9868 9866 9864 9862 9860 9855 9850 9846 9844 9844 9847 9851 9850 9846 9843 9843 9842 9842 9840 9839 9837 9835 9833 9831 9830 9828 9826 9824 9823 9823 9823 9825 9826 9824 9822 9821 9820 9819 9818 9819 9818 9818 9819 9820 9820 9820 9821 9822 9824 9825 9826 9828 9829 9829 9830 9831 9832 9835 9837 9839 9841 9844 9847 9851 9853 9857 9861 9865 9868 9872
9896 9894 9891 9888 9885 9882 9879 9876 9873 9871 9868 9865 9863 9860 9859 9857 9856 9854 9852 9850 9846 9843 9841 9838 9835 9833 9834 9836 9835 9833 9832 9832 9832 9831 9830 9828 9827 9825 9823 9821 9818 9815 9813 9812 9811 9812 9814 9816 9815 9813 9811 9810 9809 9808 9808 9807 9807 9808 9808 9808 9809 9809 9811 9812 9814 9814 9816 9817 9818 9819 9820 9821 9823 9825 9827 9829 9831 9834 9837 9840 9843 9847 9851 9855 9859
9886 9883 9879 9877 9874 9871 9867 9865 9862 9860 9857 9855 9852 9849 9848 9846 9845 9843 9841 9839 9838 9836 9833 9831 9828 9824 9821 9821 9822 9822 9821 9822 9822 9821 9820 9818 9816 9815 9814 9812 9810 9806 9803 9801 9801 9801 9802 9803 9803 9803 9801 9799 9798 9798 9798 9797 9797 9798 9798 9797 9797 9798 9799 9801 9802 9803 9804 9805 9806 9808 9810 9810 9812 9813 9815 9817 9819 9821 9824 9828 9831 9834 9838 9841 9845
9875 9871 9868 9866 9863 9859 9857 9854 9851 9849 9846 9844 9841 9839 9837 9835 9834 9832 9831 9829 9828 9827 9824 9822 9820 9817 9813 9810 9808 9808 9809 9810 9811 9811 9810 9808 9806 9804 9803 9802 9801 9798 9795 9792 9792 9792 9792 9792 9791 9791 9790 9789 9788 9788 9787 9787 9786 9787 9788 9788 9787 9787 9788 9790 9791 9792 9793 9794 9795 9797 9799 9800 9801 9802 9804 9805 9807 9810 9812 9815 9818 9822 9825 9828 9832
9864 9860 9857 9855 9852 9849 9846 9843 9840 9838 9835 9833 9831 9829 9827 9825 9823 9822 9821 9820 9818 9817 9815 9813 9810 9808 9806 9803 9799 9797 9796 9796 9798 9800 9800 9799 9796 9794 9792 9791 9790 9790 9787 9785 9784 9784 9784 9783 9781 9780 9779 9778 9778 9777 9777 9776 9776 9776 9777 9778 9777 9777 9778 9779 9780 9781 9782 9784 9785 9786 9788 9789 9791 9792 9793 9795 9797 9799 9801 9804 9807 9811 9814 9817 9820
9853 9850 9847 9844 9841 9838 9835 9832 9829 9827 9824 9822 9821 9819 9816 9815 9814 9812 9810 9809 9808 9807 9806 9804 9801 9799 9797 9795 9792 9790 9787 9785 9785 9786 9788 9788 9786 9783 9781 9779 9779 9780 9780 9778 9776 9775 9775 9774 9773 9771 9769 9769 9768 9768 9767 9766 9766 9766 9766 9767 9768 9768 9768 9769 9770 9770 9771 9773 9775 9776 9777 9779 9780 9782 9783 9785 9787 9789 9792 9794 9797 9801 9804 9807 9810
9843 9840 9837 9834 9831 9828 9825 9822 9819 9816 9814 9812 9811 9808 9807 9805 9804 9802 9801 9799 9798 9797 9796 9794 9792 9790 9788 9787 9785 9782 9780 9778 9776 9774 9775 9775 9775 9773 9771 9769 9768 9769 9770 9769 9767 9766 9766 9765 9764 9762 9761 9760 9759 9759 9758 9757 9757 9757 9756 9757 9758 9758 9758 9759 9760 9761 9761 9763 9764 9766 9767 9768 9770 9771 9772 9775 9778 9780 9783 9786 9789 9792 9795 9798 9801
9832 9830 9827 9824 9821 9818 9815 9812 9809 9807 9805 9803 9801 9799 9798 9796 9794 9793 9791 9789 9788 9787 9785 9784 9783 9781 9779 9778 9777 9775 9773 9771 9769 9766 9764 9763 9762 9762 9762 9761 9760 9759 9759 9759 9758 9756 9755 9755 9754 9753 9752 9751 9750 9749 9749 9748 9748 9748 9747 9747 9748 9749 9749 9750 9751 9751 9752 9753 9754 9756 9757 9758 9759 9761 9762 9764 9767 9770 9772 9775 9778 9782 9785 9788 9791
9822 9819 9816 9813 9811 9808 9805 9802 9799 9797 9796 9794 9792 9790 9788 9787 9785 9784 9782 9780 9779 9777 9775 9774 9773 9772 9771 9770 9768 9767 9765 9763 9761 9759 9757 9754 9752 9751 9751 9752 9752 9751 9751 9750 9749 9747 9745 9745 9744 9744 9743 9742 9741 9740 9739 9739 9739 9739 9739 9739 9739 9739 9740 9741 9741 9742 9743 9743 9745 9746 9747 9749 9750 9751 9752 9754 9756 9759 9761 9764 9767 9770 9773 9776 9779
9811 9809 9806 9803 9801 9798 9795 9793 9790 9789 9787 9785 9783 9781 9779 9777 9776 9775 9773 9771 9770 9768 9766 9765 9764 9763 9762 9761 9760 9758 9757 9755 9753 9751 9749 9746 9744 9743 9742 9742 9743 9743 9743 9743 9741 9739 9737 9736 9735 9734 9734 9733 9733 9732 9731 9730 9730 9731 9731 9731 9730 9731 9731 9732 9732 9733 9734 9734 9735 9737 9738 9739 9741 9742 9743 9745 9747 9749 9752 9754 9757 9760 9762 9765 9768
9801 9798 9795 9792 9790 9788 9786 9783 9781 9780 9778 9776 9774 9772 9770 9768 9767 9766 9764 9763 9761 9759 9757 9756 9755 9754 9754 9752 9751 9750 9749 9747 9745 9743 9741 9739 9738 9737 9735 9734 9734 9734 9736 9736 9734 9732 9730 9728 9727 9726 9725 9724 9724 9724 9723 9722 9722 9722 9722 9722 9722 9722 9722 9723 9724 9724 9725 9725 9727 9728 9729 9730 9732 9733 9735 9736 9738 9740 9743 9746 9748 9751 9753 9755 9758
9790 9788 9785 9782 9780 9778 9776 9775 9773 9771 9769 9767 9765 9763 9761 9760 9758 9757 9755 9754 9752 9751 9749 9748 9747 9746 9745 9743 9742 9741 9740 9738 9737 9735 9734 9733 9731 9729 9728 9726 9725 9725 9727 9727 9727 9725 9723 9721 9720 9719 9717 9716 9716 9716 9715 9715 9714 9714 9714 9714 9714 9714 9714 9714 9715 9716 9716 9717 9718 9719 9721 9722 9723 9725 9726 9728 9730 9732 9735 9737 9740 9742 9745 9747 9749
9780 9777 9775 9773 9770 9768 9767 9766 9764 9762 9760 9758 9756 9755 9753 9751 9749 9748 9746 9745 9744 9743 9741 9740 9739 9738 9737 9735 9734 9733 9731 9730 9729 9728 9727 9726 9724 9722 9720 9719 9717 9717 9718 9719 9719 9718 9716 9714 9713 9712 9710 9709 9709 9708 9707 9707 9707 9707 9706 9706 9706 9706 9706 9706 9707 9708 9708 9708 9709 9711 9712 9714 9715 9716 9718 9720 9722 9724 9726 9729 9731 9734 9736 9738 9741
9770 9768 9766 9763 9761 9760 9758 9757 9755 9753 9751 9750 9748 9746 9744 9742 9741 9739 9738 9736 9735 9734 9733 9732 9731 9730 9729 9727 9726 9724 9723 9722 9722 9721 9720 9719 9717 9715 9713 9711 9710 9709 9709 9710 9711 9710 9708 9707 9706 9705 9703 9702 9702 9701 9700 9700 9699 9699 9699 9699 9699 9699 9699 9699 9699 9700 9700 9701 9701 9702 9704 9705 9707 9708 9710 9712 9714 9716 9718 9720 9722 9725 9727 9729 9732
9760 9758 9756 9754 9752 9751 9749 9747 9746 9744 9742 9741 9739 9738 9736 9734 9732 9731 9730 9728 9727 9726 9725 9724 9723 9722 9721 9719 9718 9716 9716 9715 9715 9714 9713 9712 9710 9708 9706 9704 9703 9702 9702 9702 9703 9703 9701 9700 9699 9697 9696 9695 9695 9694 9693 9692 9692 9692 9692 9692 9692 9692 9691 9691 9692 9692 9693 9693 9694 9694 9696 9697 9699 9701 9702 9704 9706 9708 9710 9712 9714 9716 9718 9720 9722
9751 9749 9747 9745 9743 9742 9740 9738 9737 9735 9734 9732 9731 9729 9728 9726 9724 9723 9722 9720 9719 9718 9717 9716 9715 9714 9713 9711 9710 9710 9709 9708 9707 9707 9706 9704 9703 9701 9699 9698 9697 9696 9695 9695 9695 9695 9694 9693 9692 9690 9689 9688 9688 9687 9687 9686 9685 9685 9685 9685 9685 9685 9684 9684 9685 9685 9685 9686 9686 9687 9688 9690 9691 9693 9695 9696 9698 9700 9702 9703 9706 9708 9710 9712 9714